{"data":{"norad_id":47306,"intl_designator":"2021-001A","name":"TURKSAT 5A","alt_names":[],"object_type":"PAYLOAD","status":"ACTIVE","operator":null,"country":"TURK","launch_date":"2021-01-08","launch_site_code":"AFETR","launch_vehicle":null,"mission":null,"orbit_class":"UNKNOWN","rcs_meters":null,"size_class":null,"mass_kg":null,"dimensions":null,"purposes":["comms"],"wikipedia_slug":null,"has_3d_model":false,"image_url":null,"decayed_at":null,"tle_current":{"epoch":"2026-09-19T20:32:23.286048Z","epoch_age_seconds":77624,"freshness":"FRESH","line1":"1 47306U 21001A   26262.85582507  .00000150  00000+0  00000+0 0  9996","line2":"2 47306   0.0157 129.5812 0000326 301.1992 267.0183  1.00272025 20917","mean_motion":1.00272025,"eccentricity":3.26e-5,"inclination_deg":0.0157,"raan_deg":129.5812,"arg_perigee_deg":301.1992,"mean_anomaly_deg":267.0183,"bstar":0,"rev_number":2091,"period_min":1436.0934667471,"perigee_km":35785.153112544,"apogee_km":35787.902248681,"semimajor_km":42164.664680613,"source":"CELESTRAK","updated_at":"2026-09-20T09:00:35.296999Z"}}}